Location: Durrweiler
(48.5206°N, 8.5498°E)
Time: 23:47:16
(UTC+00:00)

Daily predictions for brighter satellites

Satellite Brightness Start Highest point End
(mag) Time Altitude Azimuth Time Altitude Azimuth Time Altitude Azimuth
MOS 1 Rocket 4.0 16:03:07 10° N 16:08:21 65° WNW 16:13:17 10° SSW
Cosmos-2242 3.0 16:04:24 10° S 16:08:42 71° E 16:12:59 10° NNE
FengYun 1-2 T 4.4 16:03:48 10° SE 16:09:16 55° ENE 16:14:42 10° N
Cosmos 1354 Rocket 4.1 16:06:54 10° NNW 16:12:16 84° ENE 16:17:36 10° SSE
Cosmos 2151 3.8 16:08:07 10° NNW 16:12:20 56° W 16:16:32 10° S
NOAA 6 4.3 16:07:52 10° SE 16:12:46 47° ENE 16:17:42 10° N
CZ-4B R/B 4.2 16:09:34 10° ESE 16:13:53 24° ENE 16:18:08 10° N
CORIOLIS 4.5 16:09:47 10° SE 16:14:52 45° ENE 16:20:01 10° N
CZ-4B R/B 2.9 16:15:15 10° SSE 16:19:30 81° ENE 16:23:35 10° NNW
ADEOS 4.4 16:16:30 10° S 16:21:37 56° WSW 16:26:47 10° NNW
Meteor 1-27 4.4 16:17:46 10° SSW 16:23:20 80° WNW 16:28:59 10° N
Iridium 2 3.9 16:21:27 10° N 16:25:08 48° E 16:28:46 10° SSE
Cosmos 1766 Rocket 3.5 16:21:56 10° N 16:26:15 62° ENE 16:30:33 10° SSE
Cosmos 1869 3.7 16:22:23 10° SSW 16:26:18 65° WNW 16:30:10 10° N
USA 305 3.4 16:25:52 10° SW 16:29:54 46° SE 16:33:32 13° ENE
SL-08 R/B 3.6 16:26:12 10° N 16:31:01 74° WNW 16:35:41 10° SSW
Cosmos 1606 3.4 16:28:12 10° SSE 16:31:33 32° E 16:34:56 10° NNE
ARGOS 4.0 16:29:39 10° ESE 16:34:06 27° ENE 16:38:34 10° N
USA 276 2.1 16:32:47 10° W 16:35:55 67° N 16:38:19 16° ENE
Okean O Rocket 2.7 16:33:19 10° ESE 16:36:50 23° ENE 16:40:22 10° N
COSMO-SKYMED 1 4.0 16:34:16 10° NE 16:37:19 19° E 16:40:26 10° SE
Cosmos 1464 Rocket 4.2 16:34:00 10° SSE 16:40:08 54° E 16:46:21 10° NNE
Aureole 3 4.3 16:37:51 10° S 16:42:57 68° E 16:49:26 10° NNE
ERBS 3.9 16:43:34 10° S 16:45:58 20° SE 16:47:12 16° E
Meteor 2-19 Rocket 4.5 16:41:21 10° N 16:47:22 58° ENE 16:53:21 10° SSE
Cosmos 2221 2.8 16:45:32 10° SSE 16:49:35 46° E 16:53:42 10° NNE
NOSS 2-1 (E) 3.0 16:47:00 10° SSW 16:50:13 54° SE 16:52:18 20° NE
ISS -3.7 16:49:25 10° WSW 16:52:48 72° NNW 16:54:50 22° ENE
CZ-2C R/B 3.3 16:48:43 10° NNE 16:53:19 30° E 16:57:51 10° SSE
USA 267 3.6 16:47:44 13° NE 16:53:30 57° NNW 16:59:51 10° W
Cosmos 1340 Rocket 3.4 16:51:55 10° N 16:55:41 36° ENE 16:59:26 10° SE
deb Chang Zheng 4 3.9 16:53:50 10° SE 16:57:53 41° ENE 17:01:58 10° N
YAOGAN 1 3.9 16:58:27 19° NE 16:58:27 19° NE 17:01:05 10° NNE
AQUARIUS 4.2 16:54:08 10° SSE 16:58:37 83° WSW 17:03:09 10° NNW
Cosmos 990 Rocket 4.5 16:54:47 10° N 16:59:37 36° ENE 17:04:23 10° SE
Nadezhda 4 Rocket 4.0 16:53:50 10° N 17:00:07 65° ENE 17:06:23 10° SSE
Cosmos 1271 Rocket 2.9 16:57:10 10° SSW 17:01:03 74° WNW 17:05:01 10° N
USA 229 DEB 4.2 16:54:24 10° NW 17:01:16 45° NE 17:07:26 15° ESE
USA 229 4.2 16:54:29 10° NW 17:01:21 45° NE 17:07:28 15° ESE
USA 306 2.9 16:57:17 10° SW 17:01:32 72° SSE 17:04:01 24° ENE
Lacrosse 5 rocket 2.6 16:58:30 10° WNW 17:01:47 27° NNW 17:03:54 17° NNE
SMAP 3.6 17:01:06 10° S 17:05:42 62° WSW 17:10:21 10° NNW
Cosmos 1092 Rocket 4.3 17:00:54 10° N 17:07:00 45° ENE 17:13:03 10° SE
Cosmos 1408 Rocket 3.4 17:03:42 10° N 17:08:03 80° E 17:12:24 10° SSE
ATLAS 2AS CENTAUR R/B 3.9 17:01:32 10° WSW 17:08:53 42° NNW 17:15:29 12° NE
CZ-4B DEB 4.4 17:03:26 10° SSE 17:08:58 79° WSW 17:14:31 10° NNW
Cosmos 1743 Rocket 3.7 17:05:47 10° N 17:09:58 46° ENE 17:14:07 10° SSE
SL-16 R/B 4.2 17:09:48 10° NNE 17:10:54 10° NNE 17:11:16 10° NNE
Meteor 2-2 Rocket 4.4 17:05:17 10° S 17:11:20 89° E 17:17:24 10° NNE
Cosmos 1697 Rocket 3.3 17:06:41 10° NNW 17:11:46 33° NE 17:14:22 23° E
Cosmos 1980 Rocket 3.4 17:07:34 10° N 17:11:56 22° NE 17:12:43 21° NE
H-2A R/B 2.0 17:08:06 10° SSE 17:13:23 80° ENE 17:18:34 10° NNW
PAYLOAD B 4.3 17:10:33 10° SSE 17:16:11 87° WSW 17:21:50 10° NNW
USA 307 2.8 17:12:20 10° SW 17:16:37 81° SSE 17:18:33 32° ENE
Cosmos 44 3.2 17:13:17 10° NNW 17:18:07 57° NE 17:20:56 22° ESE
SJ-11-01 4.3 17:14:03 10° SSE 17:18:40 55° ENE 17:23:19 10° N
ATLAS CENTAUR R/B 1.9 17:17:06 10° SW 17:21:10 59° NW 17:23:56 21° NNE
Cosmos 2034 Rocket 3.9 17:15:20 10° S 17:21:28 76° E 17:27:38 10° NNE
Lacrosse 5 3.0 17:18:29 10° WNW 17:23:20 44° SW 17:28:09 10° SSE
NOSS 3-1 (A) 4.1 17:17:37 10° NW 17:24:46 60° NE 17:31:39 16° ESE
SKYMED 2 3.6 17:22:52 20° NNE 17:25:42 55° E 17:29:57 10° S
Cosmos 1809 Rocket 4.4 17:22:02 10° N 17:28:03 56° ENE 17:34:01 10° SSE
Cosmos 1898 Rocket 3.7 17:23:28 10° NNW 17:28:34 46° ENE 17:31:16 25° ESE
NOSS 3-1 (C) 4.0 17:22:25 10° NW 17:29:48 85° NE 17:38:30 10° SE
MOS 1-B Rocket 3.8 17:24:57 10° NNE 17:30:37 74° ESE 17:36:47 10° S
NOSS 2-1 (C) 3.5 17:27:59 10° WSW 17:31:08 48° NW 17:32:11 34° N
Cosmos 1656 3.5 17:25:39 10° NNW 17:31:11 77° ENE 17:36:46 10° SSE
Cosmos 2084 4.1 17:29:53 10° NNW 17:33:51 37° NE 17:33:54 37° NE
GEOS 3 Rocket 3.8 17:29:18 10° SSE 17:34:33 72° SW 17:39:46 10° NW
CZ-2D R/B 4.1 17:31:00 10° S 17:34:46 51° W 17:38:32 10° NNW
Meteor 1-20 Rocket 4.2 17:29:58 10° N 17:35:47 77° ENE 17:41:38 10° SSE
Cosmos 1461 4.1 17:33:48 10° WSW 17:37:43 36° NW 17:39:49 21° N
USA 308 2.9 17:34:28 10° WSW 17:38:43 79° NNW 17:39:46 50° NE
SL-08 RB Rocket 3.7 17:35:05 10° SSE 17:39:40 59° ENE 17:44:14 10° N
NOSS 2-1 (D) 3.9 17:37:21 10° WSW 17:40:26 40° NW 17:41:11 34° N
Cosmos 1500 Rocket 3.6 17:37:06 10° NNW 17:41:35 81° W 17:46:01 10° S
Cosmos 468 Rocket 4.2 17:37:15 10° S 17:42:07 45° ESE 17:42:42 43° E
Cosmos 2279 Rocket 4.5 17:38:24 10° SSE 17:43:29 35° E 17:43:29 35° E
SJ 16-02 3.1 17:40:09 10° NW 17:44:04 33° WSW 17:47:59 10° SSW
Cosmos 2360 4.3 17:41:23 10° NNW 17:47:01 52° NE 17:48:27 42° E
Cosmos 1634 Rocket 4.0 17:43:43 10° S 17:49:55 61° E 17:56:09 10° NNE
Cosmos 1805 Rocket 3.3 17:47:34 10° N 17:51:56 78° E 17:56:16 10° SSE
CZ-4B R/B 3.7 17:48:37 10° S 17:54:03 62° WSW 17:59:26 10° NNW
CZ-4C R/B 3.4 17:48:30 10° NW 17:54:44 38° NNE 17:56:09 35° NE
CZ-4 R/B 3.2 18:00:42 22° N 18:00:42 22° N 18:02:12 10° N
ATLAS 5 CENTAUR R/B 3.0 17:50:55 10° NW 17:58:52 40° NNE 17:58:54 40° NNE
Cosmos 1833 Rocket 2.9 17:53:38 10° S 17:58:47 48° ESE 17:58:47 48° ESE
Meteor 1-25 Rocket 4.5 18:02:03 10° NNW 18:07:34 67° W 18:13:04 10° S
Cosmos 2026 Rocket 3.9 18:02:08 10° N 18:08:22 83° W 18:14:28 10° S
USA 305 3.4 18:05:37 10° W 18:09:32 53° NNW 18:09:32 53° NNW
Sich 1 4.0 18:06:41 10° N 18:09:17 36° NNW 18:09:17 36° NNW
USA 276 4.3 18:08:56 10° WNW 18:10:26 25° WNW 18:10:26 25° WNW
Okean O Rocket 2.7 18:08:41 10° S 18:12:57 45° W 18:17:14 10° NNW
COSMO-SKYMED 1 3.4 18:11:30 25° N 18:13:46 50° WNW 18:17:58 10° SW
ARGOS 3.8 18:08:46 10° S 18:14:04 54° W 18:19:24 10° NNW
Spot 2 4.5 18:11:28 12° SSE 18:16:13 82° WSW 18:21:25 10° NNW
ATLAS CENTAUR R/B 2.5 18:10:41 10° SW 18:19:17 72° SSE 18:19:17 72° SSE
Cosmos 1937 Rocket 3.4 18:15:54 10° NNW 18:21:06 84° NNE 18:21:06 84° NNE
Meteor 2-16 Rocket 4.2 18:18:16 10° N 18:24:24 78° E 18:25:15 66° SE
Cosmos 1763 Rocket 3.5 18:23:47 10° SSW 18:28:45 73° WNW 18:28:45 73° WNW
ISS -1.1 18:26:36 10° WNW 18:27:49 20° WNW 18:27:49 20° WNW
Cosmos 2360 Rocket 4.5 18:26:46 10° N 18:27:21 11° N 18:27:21 11° N
YAOGAN 1 4.1 18:35:36 31° NW 18:35:36 31° NW 18:38:01 10° NNW
CZ-2C R/B 3.7 18:28:53 10° N 18:33:45 42° WNW 18:38:37 10° SW
USA 267 3.8 18:35:05 41° NNE 18:35:54 42° N 18:41:57 10° WNW
Cosmos 2369 4.0 18:33:23 10° NNW 18:38:07 62° NNW 18:38:07 62° NNW
Lacrosse 5 rocket 3.8 18:38:29 10° NW 18:39:29 15° NW 18:39:29 15° NW
Cosmos 2322 Rocket 4.3 18:40:10 10° N 18:41:19 14° N 18:41:19 14° N
USA 229 DEB 4.2 18:45:23 10° NW 18:52:36 63° SW 18:54:57 45° S
USA 229 4.2 18:45:28 10° NW 18:52:42 64° SW 18:54:59 46° S
Cosmos 1697 Rocket 3.4 18:50:32 10° NW 18:55:56 49° WSW 18:56:10 49° WSW
Cosmos 1980 Rocket 3.2 18:51:00 10° NNW 18:54:31 39° NNW 18:54:31 39° NNW
SL-16 R/B 4.3 18:51:46 10° NNW 18:53:08 16° N 18:53:08 16° N
COSMOS 2406 4.2 18:53:48 10° SSW 18:57:17 39° SW 18:57:17 39° SW
ATLAS CENTAUR R/B 4.1 18:58:10 10° WNW 19:00:03 16° NW 19:00:03 16° NW
ATLAS 2AS CENTAUR R/B 4.3 18:55:44 10° WNW 19:01:54 25° N 19:02:55 25° N
Cosmos 2082 Rocket 4.4 18:57:30 10° SSW 18:58:13 14° SSW 18:58:13 14° SSW
CZ-4C R/B 3.7 19:36:51 10° NW 19:41:21 45° NW 19:41:21 45° NW
